Location: Gwatt
(46.7204°N, 7.6223°E)
Time: 08:12:40
(UTC+00:00)

S-56A Canister/Altair - Pass Details

Date: 27 January 2021
Orbit: 632 x 2501 km, 38.9° (Epoch: 08 March)

Event Time Altitude Azimuth Distance (km) Brightness Sun altitude
Rises 03:28:53 0° 257° (WSW) 2,954 - -36.0°
Reaches altitude 10° 03:31:22 10° 246° (WSW) 2,007 - -35.6°
Maximum altitude 03:35:16 31° 184° (S) 1,133 - -34.9°
Exits shadow 03:38:08 17° 132° (SE) 1,714 9.6 -34.4°
Drops below altitude 10° 03:39:34 10° 122° (ESE) 2,211 10.4 -34.2°
Sets 03:42:26 0° 112° (ESE) 3,313 11.6 -33.7°
